Hourly Weather Otochnaya Sloboda

Today, 1 August, Sunday

Time Temperature Precipitation Wind Pressure Humidity
00:00 +19°C° 0.2 mm 3 mps 741 mmHg 84%
01:00 +19°C° 0.2 mm 3 mps 741 mmHg 89%
02:00 +18°C° 0.2 mm 3 mps 741 mmHg 93%
03:00 +18°C° 0.1 mm 3 mps 741 mmHg 94%
04:00 +18°C° 0.1 mm 3 mps 741 mmHg 95%
05:00 +18°C° 0.1 mm 3 mps 741 mmHg 96%
06:00 +19°C° 0 mm 3 mps 741 mmHg 90%
07:00 +20°C° 0 mm 4 mps 742 mmHg 85%
08:00 +21°C° 0 mm 4 mps 742 mmHg 79%
09:00 +23°C° 0 mm 4 mps 742 mmHg 69%
10:00 +25°C° 0 mm 3 mps 742 mmHg 59%
11:00 +27°C° 0 mm 3 mps 742 mmHg 48%
12:00 +28°C° 0 mm 3 mps 742 mmHg 45%
13:00 +29°C° 0 mm 3 mps 742 mmHg 41%
14:00 +29°C° 0 mm 3 mps 742 mmHg 37%
15:00 +29°C° 0 mm 3 mps 742 mmHg 39%
16:00 +29°C° 0 mm 3 mps 742 mmHg 41%
17:00 +29°C° 0 mm 3 mps 742 mmHg 43%
18:00 +27°C° 0 mm 2 mps 741 mmHg 49%
19:00 +25°C° 0 mm 2 mps 741 mmHg 54%
20:00 +23°C° 0 mm 1 mps 741 mmHg 60%
21:00 +23°C° 0 mm 1 mps 741 mmHg 62%
22:00 +21°C° 0 mm 2 mps 741 mmHg 64%
23:00 +20°C° 0 mm 2 mps 741 mmHg 66%

Tomorrow, 2 August, Monday

Time Temperature Precipitation Wind Pressure Humidity
00:00 +19°C° 0.5 mm 2 mps 740 mmHg 74%
01:00 +19°C° 0.5 mm 2 mps 740 mmHg 83%
02:00 +19°C° 0.5 mm 1 mps 740 mmHg 92%
03:00 +19°C° 0.7 mm 1 mps 740 mmHg 94%
04:00 +18°C° 0.7 mm 2 mps 739 mmHg 95%
05:00 +18°C° 0.7 mm 2 mps 739 mmHg 96%
06:00 +18°C° 0.2 mm 2 mps 739 mmHg 96%
07:00 +19°C° 0.2 mm 2 mps 738 mmHg 96%
08:00 +19°C° 0.2 mm 2 mps 738 mmHg 95%
09:00 +21°C° 0 mm 3 mps 738 mmHg 85%
10:00 +24°C° 0 mm 3 mps 738 mmHg 75%
11:00 +26°C° 0 mm 4 mps 738 mmHg 65%
12:00 +26°C° 1 mm 4 mps 738 mmHg 70%
13:00 +25°C° 1 mm 5 mps 738 mmHg 74%
14:00 +23°C° 1 mm 6 mps 737 mmHg 78%
15:00 +22°C° 0.5 mm 6 mps 738 mmHg 81%
16:00 +20°C° 0.5 mm 6 mps 738 mmHg 83%
17:00 +19°C° 0.5 mm 6 mps 738 mmHg 85%
18:00 +17°C° 0 mm 6 mps 739 mmHg 87%
19:00 +16°C° 0 mm 5 mps 740 mmHg 88%
20:00 +15°C° 0 mm 5 mps 740 mmHg 89%
21:00 +15°C° 0 mm 4 mps 741 mmHg 91%
22:00 +15°C° 0 mm 4 mps 741 mmHg 92%
23:00 +16°C° 0 mm 3 mps 741 mmHg 94%

Day after tomorrow, 3 August, Tuesday

Time Temperature Precipitation Wind Pressure Humidity
00:00 +16°C° 0 mm 3 mps 741 mmHg 93%
01:00 +16°C° 0 mm 3 mps 742 mmHg 92%
02:00 +16°C° 0 mm 3 mps 742 mmHg 91%
03:00 +14°C° 0 mm 3 mps 742 mmHg 91%
04:00 +14°C° 0 mm 3 mps 742 mmHg 91%
05:00 +14°C° 0 mm 3 mps 743 mmHg 92%
06:00 +16°C° 0 mm 3 mps 743 mmHg 84%
07:00 +17°C° 0 mm 4 mps 744 mmHg 76%
08:00 +18°C° 0 mm 4 mps 744 mmHg 68%
09:00 +20°C° 0 mm 4 mps 744 mmHg 63%
10:00 +21°C° 0 mm 5 mps 744 mmHg 57%
11:00 +22°C° 0 mm 5 mps 744 mmHg 52%
12:00 +22°C° 0 mm 5 mps 744 mmHg 50%
13:00 +22°C° 0 mm 5 mps 744 mmHg 48%
14:00 +22°C° 0 mm 5 mps 744 mmHg 47%
15:00 +22°C° 0 mm 5 mps 745 mmHg 50%
16:00 +21°C° 0 mm 5 mps 745 mmHg 53%
17:00 +21°C° 0 mm 4 mps 745 mmHg 56%
18:00 +20°C° 0 mm 4 mps 745 mmHg 59%
19:00 +19°C° 0 mm 4 mps 745 mmHg 63%
20:00 +18°C° 0 mm 3 mps 746 mmHg 66%
21:00 +17°C° 0 mm 3 mps 746 mmHg 72%
22:00 +14°C° 0 mm 3 mps 746 mmHg 77%
23:00 +13°C° 0 mm 3 mps 746 mmHg 82%

4 August, Wednesday

Time Temperature Precipitation Wind Pressure Humidity
00:00 +14°C° 0 mm 2 mps 746 mmHg 84%
01:00 +13°C° 0 mm 2 mps 747 mmHg 87%
02:00 +13°C° 0 mm 2 mps 747 mmHg 89%
03:00 +13°C° 0 mm 2 mps 747 mmHg 90%
04:00 +13°C° 0 mm 2 mps 747 mmHg 91%
05:00 +13°C° 0 mm 2 mps 747 mmHg 92%
06:00 +14°C° 0 mm 2 mps 747 mmHg 85%
07:00 +16°C° 0 mm 2 mps 748 mmHg 78%
08:00 +18°C° 0 mm 2 mps 748 mmHg 71%
09:00 +20°C° 0 mm 2 mps 748 mmHg 65%
10:00 +21°C° 0 mm 2 mps 748 mmHg 58%
11:00 +24°C° 0 mm 3 mps 748 mmHg 52%
12:00 +24°C° 0 mm 2 mps 748 mmHg 49%
13:00 +25°C° 0 mm 2 mps 748 mmHg 46%
14:00 +25°C° 0 mm 2 mps 748 mmHg 43%
15:00 +25°C° 0 mm 2 mps 748 mmHg 45%
16:00 +25°C° 0 mm 1 mps 748 mmHg 48%
17:00 +24°C° 0 mm 1 mps 747 mmHg 50%
18:00 +23°C° 0 mm 1 mps 747 mmHg 54%
19:00 +21°C° 0 mm 1 mps 747 mmHg 58%
20:00 +19°C° 0 mm 2 mps 747 mmHg 62%
21:00 +19°C° 0 mm 2 mps 747 mmHg 63%
22:00 +18°C° 0 mm 2 mps 747 mmHg 65%
23:00 +18°C° 0 mm 2 mps 747 mmHg 66%

5 August, Thursday

Time Temperature Precipitation Wind Pressure Humidity
00:00 +17°C° 0.7 mm 2 mps 747 mmHg 75%
01:00 +16°C° 0.7 mm 2 mps 747 mmHg 84%
02:00 +15°C° 0.7 mm 2 mps 746 mmHg 94%
03:00 +15°C° 0.3 mm 2 mps 746 mmHg 94%
04:00 +15°C° 0.3 mm 2 mps 746 mmHg 94%
05:00 +14°C° 0.3 mm 3 mps 745 mmHg 95%
06:00 +16°C° 0.2 mm 3 mps 745 mmHg 92%
07:00 +17°C° 0.2 mm 3 mps 745 mmHg 90%
08:00 +19°C° 0.2 mm 4 mps 744 mmHg 87%
09:00 +20°C° 0 mm 4 mps 744 mmHg 80%
10:00 +22°C° 0 mm 4 mps 744 mmHg 73%
11:00 +23°C° 0 mm 4 mps 743 mmHg 66%
12:00 +25°C° 0 mm 4 mps 743 mmHg 65%
13:00 +25°C° 0 mm 4 mps 743 mmHg 64%
14:00 +26°C° 0 mm 4 mps 743 mmHg 63%
15:00 +26°C° 0.4 mm 3 mps 742 mmHg 66%
16:00 +26°C° 0.4 mm 2 mps 742 mmHg 70%
17:00 +25°C° 0.4 mm 1 mps 741 mmHg 73%
18:00 +24°C° 0.1 mm 1 mps 741 mmHg 78%
19:00 +23°C° 0.1 mm 1 mps 741 mmHg 84%
20:00 +21°C° 0.1 mm 1 mps 740 mmHg 89%
21:00 +21°C° 0.7 mm 1 mps 740 mmHg 91%
22:00 +20°C° 0.7 mm 2 mps 740 mmHg 93%
23:00 +19°C° 0.7 mm 2 mps 740 mmHg 95%

6 August, Friday

Time Temperature Precipitation Wind Pressure Humidity
00:00 +19°C° 1.7 mm 2 mps 739 mmHg 96%
01:00 +19°C° 1.7 mm 2 mps 738 mmHg 97%
02:00 +19°C° 1.7 mm 3 mps 738 mmHg 98%
03:00 +19°C° 1.7 mm 3 mps 737 mmHg 98%
04:00 +19°C° 1.7 mm 4 mps 737 mmHg 97%
05:00 +19°C° 1.7 mm 4 mps 736 mmHg 97%
06:00 +19°C° 0.9 mm 4 mps 736 mmHg 97%
07:00 +19°C° 0.9 mm 4 mps 737 mmHg 96%
08:00 +17°C° 0.9 mm 5 mps 737 mmHg 96%
09:00 +18°C° 0.7 mm 4 mps 737 mmHg 95%
10:00 +17°C° 0.7 mm 4 mps 738 mmHg 94%
11:00 +17°C° 0.7 mm 4 mps 739 mmHg 92%
12:00 +18°C° 0 mm 4 mps 739 mmHg 83%
13:00 +20°C° 0 mm 4 mps 739 mmHg 74%
14:00 +22°C° 0 mm 4 mps 740 mmHg 65%
15:00 +22°C° 0 mm 4 mps 740 mmHg 64%
16:00 +22°C° 0 mm 4 mps 740 mmHg 62%
17:00 +22°C° 0 mm 5 mps 740 mmHg 61%
18:00 +20°C° 0 mm 4 mps 740 mmHg 67%
19:00 +19°C° 0 mm 3 mps 740 mmHg 72%
20:00 +17°C° 0 mm 2 mps 740 mmHg 78%
21:00 +17°C° 0 mm 3 mps 741 mmHg 79%
22:00 +17°C° 0 mm 3 mps 741 mmHg 80%
23:00 +16°C° 0 mm 3 mps 741 mmHg 81%
Show more